Location: Montr�al
(45.5000°N, 73.5830°W)
Time: 16:17:10
(UTC-04:00)

ISS - All Passes

Search period start: 01 August 2015 00:00
Search period end: 11 August 2015 00:00
Orbit: 401 x 403 km, 51.6° (Epoch: 01 August)

Date Brightness Start Highest point End Pass type
(mag) Time Alt. Az. Time Alt. Az. Time Alt. Az.
01 Aug - 00:40:54 10° WNW 00:43:45 26° N 00:46:35 10° ENE visible
01 Aug - 02:17:35 10° NW 02:20:43 40° NNE 02:23:49 10° E visible
01 Aug - 03:54:04 10° WNW 03:57:11 42° SW 04:00:17 10° SE visible
01 Aug - 20:35:33 10° S 20:37:42 17° SE 20:39:54 10° E daylight
01 Aug - 22:10:32 10° WSW 22:13:47 78° NNW 22:17:04 10° ENE visible
01 Aug - 23:47:39 10° WNW 23:50:34 28° N 23:53:28 10° NE visible
02 Aug - 01:24:36 10° NW 01:27:35 31° NNE 01:30:34 10° ENE visible
02 Aug - 03:00:58 10° WNW 03:04:14 76° SSW 03:07:30 10° SE visible
02 Aug - 04:38:58 10° WSW 04:40:13 12° SW 04:41:21 10° SSW visible
02 Aug - 21:17:35 10° SW 21:20:48 61° SSE 21:24:02 10° ENE visible
02 Aug - 22:54:22 10° W 22:57:24 34° NNW 23:00:26 10° NE visible
03 Aug - 00:31:32 10° NW 00:34:24 27° N 00:37:16 10° ENE visible
03 Aug - 02:07:59 10° WNW 02:11:13 65° NNE 02:14:28 10° ESE night (unlit)
03 Aug - 03:44:52 10° W 03:47:24 21° SW 03:49:55 10° S night (unlit)
03 Aug - 20:24:54 10° SSW 20:27:52 34° SE 20:30:53 10° ENE daylight
03 Aug - 22:01:06 10° W 22:04:15 45° NNW 22:07:25 10° NE visible
03 Aug - 23:38:21 10° WNW 23:41:11 26° N 23:44:02 10° ENE visible
04 Aug - 01:14:58 10° NW 01:18:08 44° NNE 01:21:17 10° E visible
04 Aug - 02:51:30 10° WNW 02:54:32 36° SW 02:57:34 10° SSE night (unlit)
04 Aug - 19:32:36 10° S 19:35:01 19° SE 19:37:27 10° E daylight
04 Aug - 21:07:55 10° WSW 21:11:10 69° NNW 21:14:26 10° ENE visible
04 Aug - 22:45:05 10° WNW 22:47:58 28° N 22:50:51 10° NE visible
05 Aug - 00:21:58 10° NW 00:24:58 33° NNE 00:28:00 10° E visible
05 Aug - 01:58:20 10° WNW 02:01:35 66° SSW 02:04:49 10° SE night (unlit)
05 Aug - 18:41:23 10° SSE 18:42:11 11° SE 18:43:05 10° ESE daylight
05 Aug - 20:14:53 10° SW 20:18:08 72° SSE 20:21:23 10° ENE daylight
05 Aug - 21:51:47 10° WNW 21:54:46 32° NNW 21:57:46 10° NE visible
05 Aug - 23:28:53 10° NW 23:31:47 28° N 23:34:40 10° ENE visible
06 Aug - 01:05:18 10° WNW 01:08:34 74° NNE 01:11:49 10° ESE visible
06 Aug - 02:42:23 10° W 02:44:41 18° SW 02:46:57 10° S night (unlit)
06 Aug - 19:22:05 10° SSW 19:25:10 40° SE 19:28:14 10° ENE daylight
06 Aug - 20:58:28 10° W 21:01:35 41° NNW 21:04:43 10° NE visible
06 Aug - 22:35:42 10° WNW 22:38:33 26° N 22:41:23 10° ENE visible
07 Aug - 00:12:17 10° NW 00:15:27 48° NNE 00:18:38 10° E visible
07 Aug - 01:48:52 10° WNW 01:51:48 31° SW 01:54:44 10° SSE night (unlit)
07 Aug - 18:29:38 10° SSW 18:32:14 22° SE 18:34:53 10° E daylight
07 Aug - 20:05:13 10° WSW 20:08:27 61° NNW 20:11:42 10° ENE daylight
07 Aug - 21:42:26 10° WNW 21:45:18 27° N 21:48:10 10° NE visible
07 Aug - 23:19:14 10° NW 23:22:17 35° NNE 23:25:21 10° E visible
08 Aug - 00:55:38 10° WNW 00:58:51 56° SW 01:02:03 10° SE visible
08 Aug - 17:37:53 10° SSE 17:39:22 13° SE 17:40:57 10° ESE daylight
08 Aug - 19:12:07 10° WSW 19:15:22 83° SSE 19:18:39 10° ENE daylight
08 Aug - 20:49:06 10° WNW 20:52:03 30° N 20:55:01 10° NE visible
08 Aug - 22:26:09 10° NW 22:29:04 29° N 22:31:59 10° ENE visible
09 Aug - 00:02:32 10° WNW 00:05:49 84° NNE 00:09:04 10° ESE visible
09 Aug - 01:39:50 10° W 01:41:53 15° SW 01:43:50 10° S night (unlit)
09 Aug - 18:19:13 10° SW 18:22:20 46° SE 18:25:30 10° ENE daylight
09 Aug - 19:55:45 10° W 19:58:50 38° NNW 20:01:55 10° NE daylight
09 Aug - 21:32:58 10° WNW 21:35:49 27° N 21:38:39 10° ENE visible
09 Aug - 23:09:29 10° NW 23:12:42 53° NNE 23:15:54 10° ESE visible
10 Aug - 00:46:09 10° W 00:48:59 27° SW 00:51:46 10° SSE visible
10 Aug - 17:26:37 10° SSW 17:29:23 26° SE 17:32:11 10° E daylight
10 Aug - 19:02:27 10° WSW 19:05:39 54° NNW 19:08:53 10° NE daylight
10 Aug - 20:39:41 10° WNW 20:42:32 27° N 20:45:23 10° ENE visible
10 Aug - 22:16:25 10° NW 22:19:30 38° NNE 22:22:35 10° E visible
10 Aug - 23:52:51 10° WNW 23:56:01 48° SW 23:59:09 10° SE visible
